Time,TemperatureF,DewpointF,PressureIn,WindDirection,WindDirectionDegrees,WindSpeedMPH,WindSpeedGustMPH,Humidity,HourlyPrecipIn,Conditions,Clouds,dailyrainin,SoftwareType,DateUTC
2013-01-26 00:04:00,53.6,45.1,30.01,SSE,158,0.0,0.0,73,0.00,,,0.00,WUHU216HW,2013-01-26 08:04:00,
2013-01-26 00:09:00,53.6,45.1,30.01,SSE,158,0.0,0.0,73,0.00,,,0.00,WUHU216HW,2013-01-26 08:09:00,
2013-01-26 00:14:00,53.6,45.1,30.01,SSE,158,0.0,0.0,73,0.00,,,0.00,WUHU216HW,2013-01-26 08:14:00,
2013-01-26 00:19:00,53.2,44.7,30.01,SSE,158,0.0,0.0,73,0.00,,,0.00,WUHU216HW,2013-01-26 08:19:00,
2013-01-26 00:24:00,53.2,44.7,30.01,SSE,158,0.0,0.0,73,0.00,,,0.00,WUHU216HW,2013-01-26 08:24:00,
2013-01-26 00:29:00,53.2,44.7,30.01,SSE,158,0.0,0.0,73,0.00,,,0.00,WUHU216HW,2013-01-26 08:29:00,
2013-01-26 00:34:00,53.2,44.7,30.01,SSE,158,0.0,0.0,73,0.00,,,0.00,WUHU216HW,2013-01-26 08:34:00,
2013-01-26 00:39:00,53.2,45.1,30.00,SSE,158,0.0,0.0,74,0.00,,,0.00,WUHU216HW,2013-01-26 08:39:00,
2013-01-26 00:44:00,53.0,44.9,30.00,SSE,158,0.0,0.0,74,0.00,,,0.00,WUHU216HW,2013-01-26 08:44:00,
2013-01-26 00:49:00,53.0,44.9,30.01,SSE,158,0.0,0.0,74,0.00,,,0.00,WUHU216HW,2013-01-26 08:49:00,
2013-01-26 00:54:00,52.8,44.4,30.00,SSE,158,0.0,0.0,73,0.00,,,0.00,WUHU216HW,2013-01-26 08:54:00,
2013-01-26 00:59:00,52.7,44.2,30.00,SSE,158,0.0,0.0,73,0.00,,,0.00,WUHU216HW,2013-01-26 08:59:00,
2013-01-26 01:04:00,52.5,44.1,30.00,SSE,158,0.0,0.0,73,0.00,,,0.00,WUHU216HW,2013-01-26 09:04:00,
2013-01-26 01:09:00,52.5,44.4,30.00,SSE,158,0.0,0.0,74,0.00,,,0.00,WUHU216HW,2013-01-26 09:09:00,
2013-01-26 01:15:00,52.5,44.8,29.99,SSE,158,0.0,0.0,75,0.00,,,0.00,WUHU216HW,2013-01-26 09:15:00,
2013-01-26 01:20:00,52.5,44.9,29.99,SSE,158,0.0,0.0,76,0.00,,,0.00,WUHU216HW,2013-01-26 09:20:00,
2013-01-26 01:25:00,52.3,44.9,29.99,SSE,158,0.0,0.0,76,0.00,,,0.00,WUHU216HW,2013-01-26 09:25:00,
2013-01-26 01:30:00,52.3,44.9,29.99,SSE,158,0.0,0.0,76,0.00,,,0.00,WUHU216HW,2013-01-26 09:30:00,
2013-01-26 01:35:00,52.1,45.1,29.99,SSE,158,0.0,0.0,77,0.00,,,0.00,WUHU216HW,2013-01-26 09:35:00,
2013-01-26 01:40:00,52.1,45.1,29.99,SSE,158,0.0,0.0,77,0.00,,,0.00,WUHU216HW,2013-01-26 09:40:00,
2013-01-26 01:45:00,51.9,44.9,29.99,SSE,158,0.0,0.0,77,0.00,,,0.00,WUHU216HW,2013-01-26 09:45:00,
2013-01-26 01:50:00,51.9,44.6,29.99,SSE,158,0.0,0.0,76,0.00,,,0.00,WUHU216HW,2013-01-26 09:50:00,
2013-01-26 01:55:00,51.8,44.4,29.99,SSE,158,0.0,0.0,76,0.00,,,0.00,WUHU216HW,2013-01-26 09:55:00,
2013-01-26 02:00:00,51.8,44.4,29.99,SSE,158,0.0,0.0,76,0.00,,,0.00,WUHU216HW,2013-01-26 10:00:00,
2013-01-26 02:05:00,51.4,44.1,29.99,SSE,158,0.0,0.0,76,0.00,,,0.00,WUHU216HW,2013-01-26 10:05:00,
2013-01-26 02:10:00,51.4,44.1,29.99,SSE,158,0.0,0.0,76,0.00,,,0.00,WUHU216HW,2013-01-26 10:10:00,
2013-01-26 02:15:00,51.4,44.1,29.99,SSE,158,0.0,0.0,76,0.00,,,0.00,WUHU216HW,2013-01-26 10:15:00,
2013-01-26 02:20:00,51.4,44.1,29.99,SSE,158,0.0,0.0,76,0.00,,,0.00,WUHU216HW,2013-01-26 10:20:00,
2013-01-26 02:25:00,51.0,43.7,29.99,SSE,158,0.0,0.0,76,0.00,,,0.00,WUHU216HW,2013-01-26 10:25:00,
2013-01-26 02:30:00,51.0,43.4,29.98,SSE,158,0.0,0.0,75,0.00,,,0.00,WUHU216HW,2013-01-26 10:30:00,
2013-01-26 02:35:00,50.7,43.4,29.99,SSE,158,0.0,0.0,76,0.00,,,0.00,WUHU216HW,2013-01-26 10:35:00,
2013-01-26 02:40:00,50.5,43.2,29.98,SSE,158,0.0,0.0,76,0.00,,,0.00,WUHU216HW,2013-01-26 10:40:00,
2013-01-26 02:45:00,50.5,43.2,29.98,SSE,158,0.0,0.0,76,0.00,,,0.00,WUHU216HW,2013-01-26 10:45:00,
2013-01-26 02:50:00,50.3,43.0,29.98,SSE,158,0.0,0.0,76,0.00,,,0.00,WUHU216HW,2013-01-26 10:50:00,
2013-01-26 02:55:00,50.3,43.3,29.98,SSE,158,0.0,0.0,77,0.00,,,0.00,WUHU216HW,2013-01-26 10:55:00,
2013-01-26 03:00:00,50.1,43.2,29.98,SSE,158,0.0,0.0,77,0.00,,,0.00,WUHU216HW,2013-01-26 11:00:00,
2013-01-26 03:05:00,50.1,43.2,29.98,SSE,158,0.0,0.0,77,0.00,,,0.00,WUHU216HW,2013-01-26 11:05:00,
2013-01-26 03:10:00,50.1,43.2,29.97,SSE,158,0.0,0.0,77,0.00,,,0.00,WUHU216HW,2013-01-26 11:10:00,
2013-01-26 03:15:00,50.1,43.2,29.97,SSE,158,0.0,0.0,77,0.00,,,0.00,WUHU216HW,2013-01-26 11:15:00,
2013-01-26 03:20:00,50.1,43.2,29.97,SSE,158,0.0,0.0,77,0.00,,,0.00,WUHU216HW,2013-01-26 11:20:00,
2013-01-26 03:25:00,50.1,43.5,29.97,SSE,158,0.0,0.0,78,0.00,,,0.00,WUHU216HW,2013-01-26 11:25:00,
2013-01-26 03:30:00,50.1,43.5,29.97,SSE,158,0.0,0.0,78,0.00,,,0.00,WUHU216HW,2013-01-26 11:30:00,
2013-01-26 03:35:00,50.1,43.5,29.97,SSE,158,0.0,0.0,78,0.00,,,0.00,WUHU216HW,2013-01-26 11:35:00,
2013-01-26 03:40:00,50.3,43.7,29.97,SSE,158,0.0,0.0,78,0.00,,,0.00,WUHU216HW,2013-01-26 11:40:00,
2013-01-26 03:45:00,50.3,43.7,29.97,SSE,158,0.0,0.0,78,0.00,,,0.00,WUHU216HW,2013-01-26 11:45:00,
2013-01-26 03:50:00,50.3,43.7,29.97,SSE,158,0.0,0.0,78,0.00,,,0.00,WUHU216HW,2013-01-26 11:50:00,
2013-01-26 03:55:00,50.3,43.7,29.97,SSE,158,0.0,0.0,78,0.00,,,0.00,WUHU216HW,2013-01-26 11:55:00,
2013-01-26 04:00:00,50.3,44.0,29.96,SSE,158,0.0,0.0,79,0.00,,,0.00,WUHU216HW,2013-01-26 12:00:00,
2013-01-26 04:05:00,50.3,44.0,29.97,SSE,158,0.0,0.0,79,0.00,,,0.00,WUHU216HW,2013-01-26 12:05:00,
2013-01-26 04:10:00,50.3,44.0,29.97,SSE,158,0.0,0.0,79,0.00,,,0.00,WUHU216HW,2013-01-26 12:10:00,
2013-01-26 04:15:00,50.3,44.0,29.96,SSE,158,0.0,0.0,79,0.00,,,0.00,WUHU216HW,2013-01-26 12:15:00,
2013-01-26 04:20:00,50.3,44.0,29.96,SSE,158,0.0,0.0,79,0.00,,,0.00,WUHU216HW,2013-01-26 12:20:00,
2013-01-26 04:25:00,50.3,44.0,29.96,SSE,158,0.0,0.0,79,0.00,,,0.00,WUHU216HW,2013-01-26 12:25:00,
2013-01-26 04:30:00,50.3,44.0,29.96,SSE,158,0.0,0.0,79,0.00,,,0.00,WUHU216HW,2013-01-26 12:30:00,
2013-01-26 04:35:00,50.3,44.0,29.96,SSE,158,0.0,0.0,79,0.00,,,0.00,WUHU216HW,2013-01-26 12:35:00,
2013-01-26 04:41:00,50.3,44.0,29.96,SSE,158,0.0,0.0,79,0.00,,,0.00,WUHU216HW,2013-01-26 12:41:00,
2013-01-26 04:46:00,50.3,44.0,29.96,SSE,158,0.0,0.0,79,0.00,,,0.00,WUHU216HW,2013-01-26 12:46:00,
2013-01-26 04:51:00,50.3,44.0,29.95,SSE,158,0.0,0.0,79,0.00,,,0.00,WUHU216HW,2013-01-26 12:51:00,
2013-01-26 04:56:00,50.1,43.8,29.95,SSE,158,0.0,0.0,79,0.00,,,0.00,WUHU216HW,2013-01-26 12:56:00,
2013-01-26 05:01:00,50.1,43.8,29.96,SSE,158,0.0,0.0,79,0.00,,,0.00,WUHU216HW,2013-01-26 13:01:00,
2013-01-26 05:06:00,50.1,43.8,29.96,SSE,158,0.0,0.0,79,0.00,,,0.00,WUHU216HW,2013-01-26 13:06:00,
2013-01-26 05:11:00,50.1,43.8,29.95,SSE,158,0.0,0.0,79,0.00,,,0.00,WUHU216HW,2013-01-26 13:11:00,
2013-01-26 05:16:00,49.8,43.5,29.95,SSE,158,0.0,0.0,79,0.00,,,0.00,WUHU216HW,2013-01-26 13:16:00,
2013-01-26 05:21:00,49.8,43.5,29.95,SSE,158,0.0,0.0,79,0.00,,,0.00,WUHU216HW,2013-01-26 13:21:00,
2013-01-26 05:26:00,49.6,43.3,29.95,SSE,158,0.0,0.0,79,0.00,,,0.00,WUHU216HW,2013-01-26 13:26:00,
2013-01-26 05:31:00,49.6,43.3,29.95,SSE,158,0.0,0.0,79,0.00,,,0.00,WUHU216HW,2013-01-26 13:31:00,
2013-01-26 05:36:00,49.6,43.3,29.95,SSE,158,0.0,0.0,79,0.00,,,0.00,WUHU216HW,2013-01-26 13:36:00,
2013-01-26 05:41:00,49.6,43.3,29.95,SSE,158,0.0,0.0,79,0.00,,,0.00,WUHU216HW,2013-01-26 13:41:00,
2013-01-26 05:46:00,49.6,43.7,29.96,SSE,158,0.0,0.0,80,0.00,,,0.00,WUHU216HW,2013-01-26 13:46:00,
2013-01-26 05:51:00,50.0,44.0,29.96,SSE,158,0.0,0.0,80,0.00,,,0.00,WUHU216HW,2013-01-26 13:51:00,
2013-01-26 05:56:00,50.0,44.0,29.96,SSE,158,0.0,0.0,80,0.00,,,0.00,WUHU216HW,2013-01-26 13:56:00,
2013-01-26 06:01:00,50.1,44.2,29.96,SSE,158,0.0,0.0,80,0.00,,,0.00,WUHU216HW,2013-01-26 14:01:00,
2013-01-26 06:06:00,50.1,44.5,29.96,SSE,158,0.0,0.0,81,0.00,,,0.00,WUHU216HW,2013-01-26 14:06:00,
2013-01-26 06:11:00,50.1,44.5,29.96,SSE,158,0.0,0.0,81,0.00,,,0.00,WUHU216HW,2013-01-26 14:11:00,
2013-01-26 06:16:00,50.3,44.7,29.96,SSE,158,0.0,0.0,81,0.00,,,0.00,WUHU216HW,2013-01-26 14:16:00,
2013-01-26 06:21:00,50.3,45.0,29.96,SSE,158,0.0,0.0,82,0.00,,,0.00,WUHU216HW,2013-01-26 14:21:00,
2013-01-26 06:26:00,50.7,45.3,29.96,SSE,158,0.0,0.0,82,0.00,,,0.00,WUHU216HW,2013-01-26 14:26:00,
2013-01-26 06:31:00,50.7,45.3,29.96,SSE,158,0.0,0.0,82,0.00,,,0.00,WUHU216HW,2013-01-26 14:31:00,
2013-01-26 06:36:00,51.0,45.7,29.96,SSE,158,0.0,0.0,82,0.00,,,0.00,WUHU216HW,2013-01-26 14:36:00,
2013-01-26 06:41:00,51.2,45.9,29.96,SSE,158,0.0,0.0,82,0.00,,,0.00,WUHU216HW,2013-01-26 14:41:00,
2013-01-26 06:46:00,51.2,45.9,29.96,SSE,158,0.0,0.0,82,0.00,,,0.00,WUHU216HW,2013-01-26 14:46:00,
2013-01-26 06:51:00,51.4,46.1,29.95,SSE,158,0.0,0.0,82,0.00,,,0.00,WUHU216HW,2013-01-26 14:51:00,
2013-01-26 06:56:00,51.4,46.1,29.96,SSE,158,0.0,0.0,82,0.00,,,0.00,WUHU216HW,2013-01-26 14:56:00,
2013-01-26 07:01:00,51.8,46.4,29.96,SSE,158,0.0,0.0,82,0.00,,,0.00,WUHU216HW,2013-01-26 15:01:00,
2013-01-26 07:06:00,51.9,46.6,29.95,ESE,113,2.4,2.4,82,0.00,,,0.00,WUHU216HW,2013-01-26 15:06:00,
2013-01-26 07:11:00,51.9,46.6,29.95,ESE,113,2.4,2.4,82,0.00,,,0.00,WUHU216HW,2013-01-26 15:11:00,
2013-01-26 07:16:00,51.9,46.9,29.95,WSW,248,0.0,2.4,83,0.00,,,0.00,WUHU216HW,2013-01-26 15:16:00,
2013-01-26 07:21:00,51.9,47.2,29.95,West,270,0.0,0.0,84,0.00,,,0.00,WUHU216HW,2013-01-26 15:21:00,
2013-01-26 07:26:00,51.9,47.2,29.95,West,270,0.0,0.0,84,0.00,,,0.00,WUHU216HW,2013-01-26 15:26:00,
2013-01-26 07:31:00,52.8,48.1,29.95,WSW,248,0.0,0.0,84,0.00,,,0.00,WUHU216HW,2013-01-26 15:31:00,
2013-01-26 07:36:00,52.8,48.1,29.95,WSW,248,0.0,0.0,84,0.00,,,0.00,WUHU216HW,2013-01-26 15:36:00,
2013-01-26 07:41:00,53.2,48.8,29.95,SSE,158,0.0,0.0,85,0.00,,,0.00,WUHU216HW,2013-01-26 15:41:00,
2013-01-26 07:46:00,53.4,49.3,29.95,SSE,158,0.0,0.0,86,0.00,,,0.00,WUHU216HW,2013-01-26 15:46:00,
2013-01-26 07:52:00,53.7,49.9,29.95,West,270,0.0,0.0,87,0.00,,,0.00,WUHU216HW,2013-01-26 15:52:00,
2013-01-26 07:57:00,53.7,49.9,29.95,NNW,338,0.0,0.0,87,0.00,,,0.00,WUHU216HW,2013-01-26 15:57:00,
2013-01-26 08:02:00,53.7,49.9,29.94,NNW,338,0.0,0.0,87,0.00,,,0.00,WUHU216HW,2013-01-26 16:02:00,
2013-01-26 08:07:00,53.9,50.4,29.94,NNE,23,0.0,0.0,88,0.00,,,0.00,WUHU216HW,2013-01-26 16:07:00,
2013-01-26 08:12:00,54.1,50.6,29.94,WSW,248,0.0,0.0,88,0.00,,,0.00,WUHU216HW,2013-01-26 16:12:00,
2013-01-26 08:17:00,54.3,50.8,29.94,NNW,338,0.0,0.0,88,0.00,,,0.00,WUHU216HW,2013-01-26 16:17:00,
2013-01-26 08:22:00,54.3,51.1,29.94,NNE,23,0.0,0.0,89,0.00,,,0.00,WUHU216HW,2013-01-26 16:22:00,
2013-01-26 08:27:00,54.3,51.1,29.95,SSE,158,0.0,0.0,89,0.00,,,0.00,WUHU216HW,2013-01-26 16:27:00,
2013-01-26 08:32:00,54.5,51.2,29.95,WNW,293,0.0,0.0,89,0.00,,,0.00,WUHU216HW,2013-01-26 16:32:00,
2013-01-26 08:37:00,54.6,51.4,29.95,NW,315,3.1,3.1,89,0.00,,,0.00,WUHU216HW,2013-01-26 16:37:00,
2013-01-26 08:42:00,54.8,51.6,29.95,NNW,338,1.3,3.1,89,0.00,,,0.00,WUHU216HW,2013-01-26 16:42:00,
2013-01-26 08:47:00,54.8,51.6,29.95,North,0,0.0,1.3,89,0.00,,,0.00,WUHU216HW,2013-01-26 16:47:00,
2013-01-26 08:52:00,55.0,51.8,29.95,North,0,0.0,1.3,89,0.00,,,0.00,WUHU216HW,2013-01-26 16:52:00,
2013-01-26 08:58:00,55.0,51.5,29.96,WNW,293,2.4,2.4,88,0.00,,,0.00,WUHU216HW,2013-01-26 16:58:00,
2013-01-26 09:03:00,55.0,51.5,29.96,NE,45,0.0,2.4,88,0.00,,,0.00,WUHU216HW,2013-01-26 17:03:00,
2013-01-26 09:08:00,54.8,51.3,29.96,WSW,248,0.0,2.4,88,0.00,,,0.00,WUHU216HW,2013-01-26 17:08:00,
2013-01-26 09:13:00,54.8,51.3,29.96,NNW,338,0.0,0.0,88,0.00,,,0.00,WUHU216HW,2013-01-26 17:13:00,
2013-01-26 09:18:00,54.8,51.3,29.96,North,0,2.6,2.6,88,0.00,,,0.00,WUHU216HW,2013-01-26 17:18:00,
2013-01-26 09:23:00,54.8,51.0,29.96,NNW,338,0.0,2.6,87,0.00,,,0.00,WUHU216HW,2013-01-26 17:23:00,
2013-01-26 09:28:00,54.6,50.8,29.96,NNW,338,4.6,4.6,87,0.00,,,0.00,WUHU216HW,2013-01-26 17:28:00,
2013-01-26 09:33:00,54.5,50.6,29.96,NW,315,0.0,4.6,87,0.00,,,0.00,WUHU216HW,2013-01-26 17:33:00,
2013-01-26 09:38:00,54.5,50.6,29.96,NNW,338,1.3,5.5,87,0.00,,,0.00,WUHU216HW,2013-01-26 17:38:00,
2013-01-26 09:43:00,54.5,50.6,29.97,NNE,23,0.0,5.5,87,0.00,,,0.00,WUHU216HW,2013-01-26 17:43:00,
2013-01-26 09:48:00,54.5,50.6,29.97,North,0,0.0,1.3,87,0.00,,,0.00,WUHU216HW,2013-01-26 17:48:00,
2013-01-26 09:53:00,54.5,50.6,29.97,SE,135,0.0,1.7,87,0.00,,,0.00,WUHU216HW,2013-01-26 17:53:00,
2013-01-26 09:58:00,54.6,50.5,29.97,NNW,338,0.0,1.7,86,0.00,,,0.00,WUHU216HW,2013-01-26 17:58:00,
2013-01-26 10:03:00,54.8,50.7,29.97,NNW,338,0.0,1.3,86,0.00,,,0.00,WUHU216HW,2013-01-26 18:03:00,
2013-01-26 10:08:00,54.8,50.7,29.97,WNW,293,2.2,2.2,86,0.00,,,0.00,WUHU216HW,2013-01-26 18:08:00,
2013-01-26 10:13:00,54.6,50.5,29.96,NNW,338,3.1,3.1,86,0.00,,,0.00,WUHU216HW,2013-01-26 18:13:00,
2013-01-26 10:18:00,54.6,50.2,29.96,WNW,293,0.0,3.1,85,0.00,,,0.00,WUHU216HW,2013-01-26 18:18:00,
2013-01-26 10:23:00,54.6,50.2,29.96,NNW,338,4.2,4.2,85,0.00,,,0.00,WUHU216HW,2013-01-26 18:23:00,
2013-01-26 10:28:00,54.8,50.3,29.96,NNW,338,4.2,4.2,85,0.00,,,0.00,WUHU216HW,2013-01-26 18:28:00,
2013-01-26 10:33:00,54.8,50.3,29.96,NW,315,4.6,4.6,85,0.00,,,0.00,WUHU216HW,2013-01-26 18:33:00,
2013-01-26 10:38:00,54.8,50.3,29.96,NW,315,5.3,5.3,85,0.00,,,0.00,WUHU216HW,2013-01-26 18:38:00,
2013-01-26 10:43:00,55.0,50.5,29.96,North,0,0.0,5.3,85,0.00,,,0.00,WUHU216HW,2013-01-26 18:43:00,
2013-01-26 10:48:00,55.2,50.3,29.96,NW,315,0.0,1.7,84,0.00,,,0.00,WUHU216HW,2013-01-26 18:48:00,
2013-01-26 10:53:00,55.2,50.3,29.96,NNW,338,0.0,1.7,84,0.00,,,0.00,WUHU216HW,2013-01-26 18:53:00,
2013-01-26 10:58:00,55.5,50.7,29.96,NNW,338,2.4,5.8,84,0.00,,,0.00,WUHU216HW,2013-01-26 18:58:00,
2013-01-26 11:03:00,55.5,50.7,29.96,NW,315,1.3,5.8,84,0.00,,,0.00,WUHU216HW,2013-01-26 19:03:00,
2013-01-26 11:08:00,55.7,50.9,29.96,East,90,0.0,2.4,84,0.00,,,0.00,WUHU216HW,2013-01-26 19:08:00,
2013-01-26 11:13:00,55.9,51.1,29.95,West,270,0.0,2.4,84,0.00,,,0.00,WUHU216HW,2013-01-26 19:13:00,
2013-01-26 11:18:00,56.1,50.9,29.95,NNW,338,0.0,2.4,83,0.00,,,0.00,WUHU216HW,2013-01-26 19:18:00,
2013-01-26 11:23:00,56.3,51.1,29.95,NW,315,2.6,2.6,83,0.00,,,0.00,WUHU216HW,2013-01-26 19:23:00,
2013-01-26 11:28:00,56.3,50.5,29.95,NW,315,1.7,2.6,81,0.00,,,0.00,WUHU216HW,2013-01-26 19:28:00,
2013-01-26 11:33:00,56.3,50.1,29.95,NNW,338,5.8,5.8,80,0.00,,,0.00,WUHU216HW,2013-01-26 19:33:00,
2013-01-26 11:38:00,56.3,50.1,29.95,WNW,293,1.3,5.8,80,0.00,,,0.00,WUHU216HW,2013-01-26 19:38:00,
2013-01-26 11:43:00,55.9,50.1,29.95,WNW,293,1.3,5.8,80,0.00,,,0.00,WUHU216HW,2013-01-26 19:43:00,
2013-01-26 11:48:00,55.9,49.8,29.95,NW,315,5.5,5.5,80,0.00,,,0.00,WUHU216HW,2013-01-26 19:48:00,
2013-01-26 11:53:00,55.7,49.6,29.94,NNW,338,5.8,5.8,80,0.00,,,0.00,WUHU216HW,2013-01-26 19:53:00,
2013-01-26 11:58:00,55.5,49.4,29.94,NNW,338,1.7,5.8,80,0.00,,,0.00,WUHU216HW,2013-01-26 19:58:00,
2013-01-26 12:03:00,55.5,49.4,29.94,NNW,338,1.3,5.8,80,0.00,,,0.00,WUHU216HW,2013-01-26 20:03:00,
2013-01-26 12:08:00,55.5,49.4,29.94,NW,315,3.5,3.5,80,0.00,,,0.00,WUHU216HW,2013-01-26 20:08:00,
2013-01-26 12:13:00,55.5,49.4,29.94,NNW,338,1.5,3.5,80,0.00,,,0.00,WUHU216HW,2013-01-26 20:13:00,
2013-01-26 12:18:00,55.5,49.4,29.94,NNW,338,1.5,3.5,80,0.00,,,0.00,WUHU216HW,2013-01-26 20:18:00,
2013-01-26 12:23:00,55.5,49.4,29.94,North,0,0.0,1.5,80,0.00,,,0.00,WUHU216HW,2013-01-26 20:23:00,
2013-01-26 12:28:00,55.5,49.1,29.94,North,0,0.0,1.5,79,0.00,,,0.00,WUHU216HW,2013-01-26 20:28:00,
2013-01-26 12:33:00,55.7,49.2,29.93,NW,315,0.0,0.0,79,0.00,,,0.00,WUHU216HW,2013-01-26 20:33:00,
2013-01-26 12:38:00,55.7,49.2,29.93,NNW,338,3.3,3.3,79,0.00,,,0.00,WUHU216HW,2013-01-26 20:38:00,
2013-01-26 12:43:00,56.1,50.0,29.93,NW,315,0.0,3.3,80,0.00,,,0.00,WUHU216HW,2013-01-26 20:43:00,
2013-01-26 12:48:00,56.4,50.0,29.93,NW,315,0.0,3.3,79,0.00,,,0.00,WUHU216HW,2013-01-26 20:48:00,
2013-01-26 12:53:00,57.3,50.9,29.92,NNW,338,1.1,1.1,79,0.00,,,0.00,WUHU216HW,2013-01-26 20:53:00,
2013-01-26 12:58:00,58.1,51.6,29.92,East,90,0.0,3.1,79,0.00,,,0.00,WUHU216HW,2013-01-26 20:58:00,
2013-01-26 13:03:00,58.6,52.1,29.92,ENE,68,0.0,3.1,79,0.00,,,0.00,WUHU216HW,2013-01-26 21:03:00,
2013-01-26 13:08:00,59.1,52.3,29.91,South,180,0.0,0.0,78,0.00,,,0.00,WUHU216HW,2013-01-26 21:08:00,
2013-01-26 13:13:00,59.9,52.3,29.91,NNE,23,2.6,2.6,76,0.00,,,0.00,WUHU216HW,2013-01-26 21:13:00,
2013-01-26 13:19:00,60.2,51.6,29.91,NW,315,3.8,6.4,73,0.00,,,0.00,WUHU216HW,2013-01-26 21:19:00,
2013-01-26 13:24:00,60.6,51.9,29.91,NW,315,11.4,11.4,73,0.00,,,0.00,WUHU216HW,2013-01-26 21:24:00,
2013-01-26 13:29:00,60.8,51.4,29.91,NNE,23,0.0,11.4,71,0.00,,,0.00,WUHU216HW,2013-01-26 21:29:00,
2013-01-26 13:34:00,61.1,51.7,29.91,NE,45,0.0,11.4,71,0.00,,,0.00,WUHU216HW,2013-01-26 21:34:00,
2013-01-26 13:39:00,61.1,50.9,29.90,NNW,338,0.0,3.5,69,0.00,,,0.00,WUHU216HW,2013-01-26 21:39:00,
2013-01-26 13:44:00,61.5,51.3,29.91,NNW,338,4.6,4.6,69,0.00,,,0.00,WUHU216HW,2013-01-26 21:44:00,
2013-01-26 13:49:00,62.0,49.3,29.90,West,270,4.6,6.2,63,0.00,,,0.00,WUHU216HW,2013-01-26 21:49:00,
2013-01-26 13:54:00,62.2,49.4,29.90,NW,315,1.5,6.2,63,0.00,,,0.00,WUHU216HW,2013-01-26 21:54:00,
2013-01-26 13:59:00,62.2,48.6,29.91,NW,315,2.4,4.6,61,0.00,,,0.00,WUHU216HW,2013-01-26 21:59:00,
2013-01-26 14:04:00,62.6,47.1,29.91,NE,45,5.8,5.8,57,0.00,,,0.00,WUHU216HW,2013-01-26 22:04:00,
2013-01-26 14:09:00,62.2,47.2,29.91,WNW,293,5.5,5.8,58,0.00,,,0.00,WUHU216HW,2013-01-26 22:09:00,
2013-01-26 14:14:00,62.9,47.4,29.91,NNW,338,6.9,6.9,57,0.00,,,0.00,WUHU216HW,2013-01-26 22:14:00,
2013-01-26 14:19:00,64.0,48.3,29.91,NW,315,5.5,6.9,57,0.00,,,0.00,WUHU216HW,2013-01-26 22:19:00,
2013-01-26 14:24:00,65.1,48.4,29.91,West,270,5.1,10.5,55,0.00,,,0.00,WUHU216HW,2013-01-26 22:24:00,
2013-01-26 14:29:00,65.3,48.1,29.91,NW,315,2.0,10.5,54,0.00,,,0.00,WUHU216HW,2013-01-26 22:29:00,
2013-01-26 14:34:00,66.0,47.9,29.91,NNW,338,4.6,4.6,52,0.00,,,0.00,WUHU216HW,2013-01-26 22:34:00,
2013-01-26 14:39:00,66.3,47.7,29.91,WNW,293,5.5,5.5,51,0.00,,,0.00,WUHU216HW,2013-01-26 22:39:00,
2013-01-26 14:44:00,66.9,48.2,29.91,West,270,0.0,5.5,51,0.00,,,0.00,WUHU216HW,2013-01-26 22:44:00,
2013-01-26 14:49:00,68.3,48.4,29.91,NNW,338,4.4,5.3,49,0.00,,,0.00,WUHU216HW,2013-01-26 22:49:00,
2013-01-26 14:55:00,69.0,46.7,29.92,NNW,338,4.4,4.4,45,0.00,,,0.00,WUHU216HW,2013-01-26 22:55:00,
2013-01-26 15:00:00,69.9,47.5,29.91,North,0,4.2,4.4,45,0.00,,,0.00,WUHU216HW,2013-01-26 23:00:00,
2013-01-26 15:05:00,70.3,47.2,29.91,NW,315,4.0,4.4,44,0.00,,,0.00,WUHU216HW,2013-01-26 23:05:00,
2013-01-26 15:10:00,70.8,45.9,29.91,NW,315,4.0,4.2,41,0.00,,,0.00,WUHU216HW,2013-01-26 23:10:00,
2013-01-26 15:15:00,71.0,45.5,29.92,NW,315,5.5,5.5,40,0.00,,,0.00,WUHU216HW,2013-01-26 23:15:00,
2013-01-26 15:20:00,71.0,44.8,29.91,NW,315,5.5,5.5,39,0.00,,,0.00,WUHU216HW,2013-01-26 23:20:00,
2013-01-26 15:25:00,70.5,44.3,29.91,NW,315,2.6,5.5,39,0.00,,,0.00,WUHU216HW,2013-01-26 23:25:00,
2013-01-26 15:30:00,70.7,44.4,29.91,North,0,3.1,4.4,39,0.00,,,0.00,WUHU216HW,2013-01-26 23:30:00,
2013-01-26 15:35:00,70.7,43.7,29.91,ENE,68,0.0,3.1,38,0.00,,,0.00,WUHU216HW,2013-01-26 23:35:00,
2013-01-26 15:40:00,70.5,44.3,29.91,WNW,293,0.6,0.6,39,0.00,,,0.00,WUHU216HW,2013-01-26 23:40:00,
2013-01-26 15:45:00,69.4,40.4,29.91,WNW,293,0.6,0.6,35,0.00,,,0.00,WUHU216HW,2013-01-26 23:45:00,
2013-01-26 15:50:00,69.4,40.4,29.91,WNW,293,2.0,2.0,35,0.00,,,0.00,WUHU216HW,2013-01-26 23:50:00,
2013-01-26 15:55:00,69.4,41.8,29.91,NW,315,0.0,2.0,37,0.00,,,0.00,WUHU216HW,2013-01-26 23:55:00,
2013-01-26 16:00:00,66.7,39.4,29.91,NNW,338,1.1,1.1,37,0.00,,,0.00,WUHU216HW,2013-01-27 00:00:00,
2013-01-26 16:05:00,64.9,37.8,29.91,NNW,338,1.1,1.1,37,0.00,,,0.00,WUHU216HW,2013-01-27 00:05:00,
2013-01-26 16:10:00,64.4,38.1,29.91,NNW,338,2.9,2.9,38,0.00,,,0.00,WUHU216HW,2013-01-27 00:10:00,
2013-01-26 16:15:00,62.4,37.7,29.91,NNW,338,2.2,2.9,40,0.00,,,0.00,WUHU216HW,2013-01-27 00:15:00,
2013-01-26 16:20:00,62.0,37.4,29.91,North,0,2.0,2.9,40,0.00,,,0.00,WUHU216HW,2013-01-27 00:20:00,
2013-01-26 16:25:00,60.9,36.4,29.91,West,270,0.0,4.6,40,0.00,,,0.00,WUHU216HW,2013-01-27 00:25:00,
2013-01-26 16:30:00,60.4,37.1,29.91,NNW,338,0.8,4.6,42,0.00,,,0.00,WUHU216HW,2013-01-27 00:30:00,
2013-01-26 16:35:00,59.9,37.2,29.91,NW,315,0.0,0.8,43,0.00,,,0.00,WUHU216HW,2013-01-27 00:35:00,
2013-01-26 16:40:00,59.3,37.9,29.91,North,0,2.4,2.4,45,0.00,,,0.00,WUHU216HW,2013-01-27 00:40:00,
2013-01-26 16:45:00,59.0,37.5,29.91,NW,315,2.2,2.4,45,0.00,,,0.00,WUHU216HW,2013-01-27 00:45:00,
2013-01-26 16:50:00,58.6,37.2,29.91,NW,315,1.7,2.4,45,0.00,,,0.00,WUHU216HW,2013-01-27 00:50:00,
2013-01-26 16:55:00,58.1,37.3,29.91,NW,315,3.1,3.1,46,0.00,,,0.00,WUHU216HW,2013-01-27 00:55:00,
2013-01-26 17:00:00,57.7,37.5,29.92,NW,315,0.0,3.1,47,0.00,,,0.00,WUHU216HW,2013-01-27 01:00:00,
2013-01-26 17:05:00,57.3,37.8,29.92,NW,315,0.0,5.3,48,0.00,,,0.00,WUHU216HW,2013-01-27 01:05:00,
2013-01-26 17:10:00,57.0,37.5,29.92,NW,315,0.0,5.3,48,0.00,,,0.00,WUHU216HW,2013-01-27 01:10:00,
2013-01-26 17:16:00,56.6,37.7,29.92,NNW,338,1.7,5.5,49,0.00,,,0.00,WUHU216HW,2013-01-27 01:16:00,
2013-01-26 17:21:00,56.6,37.7,29.92,WNW,293,3.1,5.5,49,0.00,,,0.00,WUHU216HW,2013-01-27 01:21:00,
2013-01-26 17:26:00,56.3,37.9,29.93,WNW,293,3.1,3.1,50,0.00,,,0.00,WUHU216HW,2013-01-27 01:26:00,
2013-01-26 17:31:00,55.9,38.5,29.93,NNW,338,0.0,3.1,52,0.00,,,0.00,WUHU216HW,2013-01-27 01:31:00,
2013-01-26 17:36:00,55.5,38.1,29.93,North,0,0.0,0.0,52,0.00,,,0.00,WUHU216HW,2013-01-27 01:36:00,
2013-01-26 17:41:00,55.2,38.2,29.93,NNW,338,6.2,6.2,53,0.00,,,0.00,WUHU216HW,2013-01-27 01:41:00,
2013-01-26 17:46:00,55.2,38.7,29.93,NNW,338,1.3,6.2,54,0.00,,,0.00,WUHU216HW,2013-01-27 01:46:00,
2013-01-26 17:51:00,54.8,38.4,29.93,NNW,338,1.3,6.2,54,0.00,,,0.00,WUHU216HW,2013-01-27 01:51:00,
2013-01-26 17:56:00,54.5,38.5,29.94,SW,225,1.3,1.3,55,0.00,,,0.00,WUHU216HW,2013-01-27 01:56:00,
2013-01-26 18:01:00,54.3,38.8,29.94,NW,315,0.0,1.5,56,0.00,,,0.00,WUHU216HW,2013-01-27 02:01:00,
2013-01-26 18:06:00,54.1,38.7,29.94,SW,225,0.0,1.5,56,0.00,,,0.00,WUHU216HW,2013-01-27 02:06:00,
2013-01-26 18:11:00,53.9,39.0,29.94,North,0,2.0,2.0,57,0.00,,,0.00,WUHU216HW,2013-01-27 02:11:00,
2013-01-26 18:16:00,53.6,38.6,29.94,South,180,0.0,2.0,57,0.00,,,0.00,WUHU216HW,2013-01-27 02:16:00,
2013-01-26 18:21:00,53.6,39.1,29.94,NNW,338,2.9,2.9,58,0.00,,,0.00,WUHU216HW,2013-01-27 02:21:00,
2013-01-26 18:26:00,53.2,38.8,29.94,North,0,0.0,2.9,58,0.00,,,0.00,WUHU216HW,2013-01-27 02:26:00,
2013-01-26 18:31:00,53.0,39.0,29.94,NW,315,5.1,5.1,59,0.00,,,0.00,WUHU216HW,2013-01-27 02:31:00,
2013-01-26 18:36:00,52.8,38.9,29.94,NW,315,0.0,5.1,59,0.00,,,0.00,WUHU216HW,2013-01-27 02:36:00,
2013-01-26 18:41:00,52.5,38.5,29.94,North,0,0.0,5.1,61,0.00,,,0.00,WUHU216HW,2013-01-27 02:41:00,
2013-01-26 18:46:00,52.5,39.4,29.94,West,270,0.6,1.5,61,0.00,,,0.00,WUHU216HW,2013-01-27 02:46:00,
2013-01-26 18:51:00,52.5,39.4,29.94,West,270,0.6,0.6,61,0.00,,,0.00,WUHU216HW,2013-01-27 02:51:00,
2013-01-26 18:56:00,52.1,39.4,29.94,SSE,158,0.0,0.6,62,0.00,,,0.00,WUHU216HW,2013-01-27 02:56:00,
2013-01-26 19:01:00,51.9,39.2,29.94,NW,315,0.0,0.0,62,0.00,,,0.00,WUHU216HW,2013-01-27 03:01:00,
2013-01-26 19:06:00,51.8,39.1,29.94,WNW,293,0.0,0.0,62,0.00,,,0.00,WUHU216HW,2013-01-27 03:06:00,
2013-01-26 19:11:00,51.4,38.7,29.95,NNW,338,1.3,1.3,62,0.00,,,0.00,WUHU216HW,2013-01-27 03:11:00,
2013-01-26 19:16:00,51.4,38.7,29.94,NNW,338,1.3,1.3,62,0.00,,,0.00,WUHU216HW,2013-01-27 03:16:00,
2013-01-26 19:21:00,51.4,39.2,29.95,WNW,293,0.0,1.3,63,0.00,,,0.00,WUHU216HW,2013-01-27 03:21:00,
2013-01-26 19:26:00,51.2,39.0,29.94,NNW,338,0.0,1.3,63,0.00,,,0.00,WUHU216HW,2013-01-27 03:26:00,
2013-01-26 19:31:00,51.2,39.4,29.95,NE,45,0.0,0.0,64,0.00,,,0.00,WUHU216HW,2013-01-27 03:31:00,
2013-01-26 19:36:00,51.2,39.4,29.95,East,90,0.0,0.0,64,0.00,,,0.00,WUHU216HW,2013-01-27 03:36:00,
2013-01-26 19:41:00,50.9,39.1,29.94,NNE,23,0.0,0.8,64,0.00,,,0.00,WUHU216HW,2013-01-27 03:41:00,
2013-01-26 19:46:00,50.9,39.1,29.95,North,0,3.5,3.5,64,0.00,,,0.00,WUHU216HW,2013-01-27 03:46:00,
2013-01-26 19:51:00,50.9,39.5,29.95,South,180,0.0,3.5,65,0.00,,,0.00,WUHU216HW,2013-01-27 03:51:00,
2013-01-26 19:56:00,50.7,39.7,29.95,NNW,338,3.3,3.3,66,0.00,,,0.00,WUHU216HW,2013-01-27 03:56:00,
2013-01-26 20:01:00,50.7,39.7,29.96,NW,315,3.1,3.3,66,0.00,,,0.00,WUHU216HW,2013-01-27 04:01:00,
2013-01-26 20:06:00,50.3,39.3,29.96,NNW,338,0.0,3.3,66,0.00,,,0.00,WUHU216HW,2013-01-27 04:06:00,
2013-01-26 20:11:00,50.3,39.3,29.96,NNW,338,0.0,0.0,66,0.00,,,0.00,WUHU216HW,2013-01-27 04:11:00,
2013-01-26 20:16:00,50.3,39.7,29.96,NW,315,0.0,0.0,67,0.00,,,0.00,WUHU216HW,2013-01-27 04:16:00,
2013-01-26 20:21:00,50.1,39.6,29.96,NNW,338,0.0,0.0,67,0.00,,,0.00,WUHU216HW,2013-01-27 04:21:00,
2013-01-26 20:26:00,50.1,39.6,29.96,ENE,68,0.0,0.0,67,0.00,,,0.00,WUHU216HW,2013-01-27 04:26:00,
2013-01-26 20:31:00,50.1,39.6,29.96,East,90,0.0,0.0,67,0.00,,,0.00,WUHU216HW,2013-01-27 04:31:00,
2013-01-26 20:36:00,50.1,39.6,29.96,NNW,338,0.0,2.2,67,0.00,,,0.00,WUHU216HW,2013-01-27 04:36:00,
2013-01-26 20:41:00,50.1,39.6,29.96,North,0,0.8,2.2,67,0.00,,,0.00,WUHU216HW,2013-01-27 04:41:00,
2013-01-26 20:46:00,50.1,39.6,29.97,NNW,338,0.0,0.8,67,0.00,,,0.00,WUHU216HW,2013-01-27 04:46:00,
2013-01-26 20:51:00,49.6,39.0,29.96,North,0,0.0,0.8,67,0.00,,,0.00,WUHU216HW,2013-01-27 04:51:00,
2013-01-26 20:56:00,49.6,39.0,29.97,NNW,338,1.7,2.6,67,0.00,,,0.00,WUHU216HW,2013-01-27 04:56:00,
2013-01-26 21:01:00,49.2,38.7,29.97,North,0,0.0,2.6,67,0.00,,,0.00,WUHU216HW,2013-01-27 05:01:00,
2013-01-26 21:06:00,49.1,38.5,29.97,NNW,338,0.0,1.7,67,0.00,,,0.00,WUHU216HW,2013-01-27 05:06:00,
2013-01-26 21:11:00,49.1,38.5,29.97,NNW,338,0.0,0.8,67,0.00,,,0.00,WUHU216HW,2013-01-27 05:11:00,
2013-01-26 21:16:00,48.9,38.7,29.97,WNW,293,0.0,0.8,68,0.00,,,0.00,WUHU216HW,2013-01-27 05:16:00,
2013-01-26 21:21:00,48.7,38.6,29.97,North,0,0.0,0.0,68,0.00,,,0.00,WUHU216HW,2013-01-27 05:21:00,
2013-01-26 21:26:00,48.5,38.4,29.97,North,0,0.0,0.0,68,0.00,,,0.00,WUHU216HW,2013-01-27 05:26:00,
2013-01-26 21:31:00,48.5,38.4,29.97,ENE,68,0.0,0.0,68,0.00,,,0.00,WUHU216HW,2013-01-27 05:31:00,
2013-01-26 21:37:00,48.5,38.4,29.97,ENE,68,0.0,0.0,68,0.00,,,0.00,WUHU216HW,2013-01-27 05:37:00,
2013-01-26 21:42:00,48.3,38.6,29.97,NW,315,0.0,0.0,69,0.00,,,0.00,WUHU216HW,2013-01-27 05:42:00,
2013-01-26 21:47:00,48.3,38.6,29.97,WNW,293,0.0,0.0,69,0.00,,,0.00,WUHU216HW,2013-01-27 05:47:00,
2013-01-26 21:52:00,48.2,38.4,29.97,WNW,293,0.0,0.0,69,0.00,,,0.00,WUHU216HW,2013-01-27 05:52:00,
2013-01-26 21:57:00,47.8,38.1,29.97,West,270,0.0,0.0,69,0.00,,,0.00,WUHU216HW,2013-01-27 05:57:00,
2013-01-26 22:02:00,47.8,38.1,29.97,West,270,0.0,0.0,69,0.00,,,0.00,WUHU216HW,2013-01-27 06:02:00,
2013-01-26 22:07:00,47.6,37.9,29.97,NNW,338,0.0,0.0,69,0.00,,,0.00,WUHU216HW,2013-01-27 06:07:00,
2013-01-26 22:12:00,47.3,38.0,29.97,NNW,338,0.0,3.5,70,0.00,,,0.00,WUHU216HW,2013-01-27 06:12:00,
2013-01-26 22:17:00,47.3,38.0,29.98,NNW,338,0.0,3.5,70,0.00,,,0.00,WUHU216HW,2013-01-27 06:17:00,
2013-01-26 22:22:00,47.3,38.0,29.98,NNW,338,0.0,0.0,70,0.00,,,0.00,WUHU216HW,2013-01-27 06:22:00,
2013-01-26 22:27:00,47.1,38.2,29.98,NW,315,0.0,0.0,71,0.00,,,0.00,WUHU216HW,2013-01-27 06:27:00,
2013-01-26 22:32:00,46.9,38.0,29.98,NW,315,0.0,0.0,71,0.00,,,0.00,WUHU216HW,2013-01-27 06:32:00,
2013-01-26 22:37:00,46.7,38.2,29.98,ENE,68,0.0,0.0,72,0.00,,,0.00,WUHU216HW,2013-01-27 06:37:00,
2013-01-26 22:42:00,46.7,38.2,29.98,NNE,23,0.0,0.0,72,0.00,,,0.00,WUHU216HW,2013-01-27 06:42:00,
2013-01-26 22:47:00,46.5,38.0,29.98,NNE,23,0.0,0.0,72,0.00,,,0.00,WUHU216HW,2013-01-27 06:47:00,
2013-01-26 22:52:00,46.5,38.0,29.98,SSE,158,0.0,0.0,72,0.00,,,0.00,WUHU216HW,2013-01-27 06:52:00,
2013-01-26 22:57:00,46.5,38.4,29.99,SSW,203,0.0,0.0,73,0.00,,,0.00,WUHU216HW,2013-01-27 06:57:00,
2013-01-26 23:02:00,46.4,38.2,29.98,WSW,248,0.0,0.0,73,0.00,,,0.00,WUHU216HW,2013-01-27 07:02:00,
2013-01-26 23:07:00,46.4,38.2,29.98,West,270,0.0,0.0,73,0.00,,,0.00,WUHU216HW,2013-01-27 07:07:00,
2013-01-26 23:13:00,46.2,38.0,29.99,West,270,0.0,0.0,73,0.00,,,0.00,WUHU216HW,2013-01-27 07:13:00,
2013-01-26 23:18:00,46.0,37.8,29.99,West,270,0.0,0.0,73,0.00,,,0.00,WUHU216HW,2013-01-27 07:18:00,
2013-01-26 23:23:00,45.8,37.7,29.99,NNW,338,0.0,0.0,73,0.00,,,0.00,WUHU216HW,2013-01-27 07:23:00,
2013-01-26 23:28:00,45.8,37.7,30.00,NNW,338,0.0,0.0,73,0.00,,,0.00,WUHU216HW,2013-01-27 07:28:00,
2013-01-26 23:33:00,45.8,37.7,29.99,NNW,338,0.0,0.0,73,0.00,,,0.00,WUHU216HW,2013-01-27 07:33:00,
2013-01-26 23:38:00,45.5,37.3,29.99,NNW,338,0.0,3.3,73,0.00,,,0.00,WUHU216HW,2013-01-27 07:38:00,
2013-01-26 23:43:00,45.5,37.3,29.99,NNW,338,0.0,3.3,73,0.00,,,0.00,WUHU216HW,2013-01-27 07:43:00,
2013-01-26 23:48:00,45.3,37.1,29.99,NNW,338,0.0,0.0,73,0.00,,,0.00,WUHU216HW,2013-01-27 07:48:00,
2013-01-26 23:53:00,45.3,37.5,29.99,NW,315,0.0,2.0,74,0.00,,,0.00,WUHU216HW,2013-01-27 07:53:00,
2013-01-26 23:58:00,45.3,37.5,29.99,WNW,293,0.0,2.0,74,0.00,,,0.00,WUHU216HW,2013-01-27 07:58:00,